| time (UTC) | temp C | wind direction | speed KPH | gust KPH | rain 1hr cm | rain 24hr cm | rain mn cm | humidity % | barometer mb |
| 20260506193016 | 17 | 221 | 0.0 | 1.6 | 0.00 | 0.00 | 0.00 | 58 | 1018.1 |
| 20260506192024 | 17 | 196 | 0.0 | 1.6 | 0.00 | 0.00 | 0.00 | 57 | 1018.0 |
| 20260506191019 | 17 | 195 | 0.0 | 1.6 | 0.00 | 0.00 | 0.00 | 55 | 1017.9 |
| 20260506190019 | 18 | 200 | 1.6 | 3.2 | 0.00 | 0.00 | 0.00 | 54 | 1017.8 |
| 20260506185041 | 18 | 0.0 | 0.0 | 0.00 | 0.00 | 0.00 | 55 | 1017.6 | |
| 20260506184017 | 18 | 0.0 | 0.0 | 0.00 | 0.00 | 0.00 | 54 | 1017.6 | |
| 20260506183104 | 18 | 0.0 | 0.0 | 0.00 | 0.00 | 0.00 | 53 | 1017.3 | |
| 20260506182020 | 18 | 0.0 | 0.0 | 0.00 | 0.00 | 0.00 | 50 | 1017.2 | |
| 20260506181017 | 18 | 0.0 | 0.0 | 0.00 | 0.00 | 0.00 | 49 | 1017.2 | |
| 20260506180025 | 19 | 0.0 | 0.0 | 0.00 | 0.00 | 0.00 | 50 | 1017.1 | |
| 20260506175025 | 19 | 0.0 | 0.0 | 0.00 | 0.00 | 0.00 | 49 | 1017.0 | |
| 20260506174024 | 20 | 0.0 | 0.0 | 0.00 | 0.00 | 0.00 | 49 | 1016.9 | |
| 20260506173020 | 20 | 0.0 | 0.0 | 0.00 | 0.00 | 0.00 | 48 | 1016.9 | |
| 20260506172039 | 20 | 0.0 | 0.0 | 0.00 | 0.00 | 0.00 | 47 | 1016.9 | |
| 20260506171017 | 20 | 324 | 0.0 | 1.6 | 0.00 | 0.00 | 0.00 | 46 | 1016.8 |
| 20260506170022 | 21 | 324 | 0.0 | 1.6 | 0.00 | 0.00 | 0.00 | 45 | 1016.7 |
| 20260506165016 | 21 | 324 | 1.6 | 1.6 | 0.00 | 0.00 | 0.00 | 43 | 1016.6 |
| 20260506164022 | 21 | 327 | 1.6 | 3.2 | 0.00 | 0.00 | 0.00 | 44 | 1016.6 |
| 20260506163019 | 21 | 353 | 1.6 | 3.2 | 0.00 | 0.00 | 0.00 | 45 | 1016.6 |
| 20260506162021 | 22 | 11 | 1.6 | 4.8 | 0.00 | 0.00 | 0.00 | 44 | 1016.6 |
| 20260506161018 | 22 | 11 | 3.2 | 4.8 | 0.00 | 0.00 | 0.00 | 40 | 1016.5 |
| 20260506160024 | 22 | 15 | 3.2 | 6.4 | 0.00 | 0.00 | 0.00 | 40 | 1016.5 |
| 20260506155043 | 22 | 9 | 1.6 | 4.8 | 0.00 | 0.00 | 0.00 | 38 | 1016.5 |
| 20260506154020 | 23 | 34 | 1.6 | 4.8 | 0.00 | 0.00 | 0.00 | 39 | 1016.5 |
| 20260506153018 | 23 | 93 | 1.6 | 3.2 | 0.00 | 0.00 | 0.00 | 36 | 1016.6 |
| 20260506152023 | 23 | 126 | 3.2 | 6.4 | 0.00 | 0.00 | 0.00 | 36 | 1016.6 |
| 20260506151018 | 22 | 329 | 1.6 | 3.2 | 0.00 | 0.00 | 0.00 | 39 | 1016.6 |
| 20260506150017 | 22 | 11 | 3.2 | 4.8 | 0.00 | 0.00 | 0.00 | 39 | 1016.6 |
| 20260506145021 | 22 | 1 | 1.6 | 4.8 | 0.00 | 0.00 | 0.00 | 39 | 1016.7 |
| 20260506144017 | 23 | 16 | 1.6 | 6.4 | 0.00 | 0.00 | 0.00 | 37 | 1016.7 |
| 20260506143016 | 23 | 36 | 3.2 | 6.4 | 0.00 | 0.00 | 0.00 | 35 | 1016.5 |
| 20260506142023 | 23 | 117 | 3.2 | 6.4 | 0.00 | 0.00 | 0.00 | 34 | 1016.5 |
| 20260506141019 | 23 | 58 | 3.2 | 4.8 | 0.00 | 0.00 | 0.00 | 35 | 1016.6 |
| 20260506140025 | 23 | 51 | 3.2 | 6.4 | 0.00 | 0.00 | 0.00 | 36 | 1016.7 |
| 20260506135022 | 22 | 20 | 4.8 | 6.4 | 0.00 | 0.00 | 0.00 | 36 | 1016.7 |
| 20260506134019 | 23 | 28 | 4.8 | 9.7 | 0.00 | 0.00 | 0.00 | 40 | 1016.8 |
| 20260506133025 | 23 | 49 | 3.2 | 6.4 | 0.00 | 0.00 | 0.00 | 36 | 1016.8 |
| 20260506132023 | 23 | 29 | 4.8 | 9.7 | 0.00 | 0.00 | 0.00 | 35 | 1016.7 |
| 20260506131018 | 24 | 29 | 4.8 | 11.3 | 0.00 | 0.00 | 0.00 | 34 | 1016.7 |
| 20260506130017 | 24 | 74 | 1.6 | 4.8 | 0.00 | 0.00 | 0.00 | 33 | 1016.7 |
| 20260506125024 | 23 | 98 | 1.6 | 4.8 | 0.00 | 0.00 | 0.00 | 34 | 1016.8 |
| 20260506124102 | 23 | 122 | 3.2 | 6.4 | 0.00 | 0.00 | 0.00 | 35 | 1016.8 |
| 20260506123018 | 23 | 124 | 3.2 | 9.7 | 0.00 | 0.00 | 0.00 | 36 | 1017.0 |
| 20260506122023 | 23 | 120 | 3.2 | 6.4 | 0.00 | 0.00 | 0.00 | 35 | 1017.1 |
| 20260506121024 | 22 | 144 | 3.2 | 9.7 | 0.00 | 0.00 | 0.00 | 36 | 1017.2 |
| 20260506120041 | 22 | 107 | 3.2 | 6.4 | 0.00 | 0.00 | 0.00 | 39 | 1017.3 |
| 20260506115042 | 22 | 133 | 3.2 | 6.4 | 0.00 | 0.00 | 0.00 | 41 | 1017.4 |
| 20260506114019 | 22 | 121 | 3.2 | 9.7 | 0.00 | 0.00 | 0.00 | 43 | 1017.4 |
| 20260506113019 | 21 | 163 | 4.8 | 11.3 | 0.00 | 0.00 | 0.00 | 44 | 1017.6 |
| 20260506112026 | 21 | 148 | 8.0 | 12.9 | 0.00 | 0.00 | 0.00 | 44 | 1017.7 |
| 20260506111043 | 20 | 142 | 8.0 | 12.9 | 0.00 | 0.00 | 0.00 | 45 | 1017.7 |
| 20260506110042 | 20 | 144 | 8.0 | 14.5 | 0.00 | 0.00 | 0.00 | 45 | 1017.7 |
| 20260506105022 | 20 | 150 | 8.0 | 14.5 | 0.00 | 0.00 | 0.00 | 43 | 1017.7 |
| 20260506104025 | 20 | 161 | 8.0 | 14.5 | 0.00 | 0.00 | 0.00 | 42 | 1017.8 |
| 20260506103023 | 20 | 146 | 11.3 | 16.1 | 0.00 | 0.00 | 0.00 | 42 | 1017.9 |
| 20260506102023 | 20 | 142 | 11.3 | 17.7 | 0.00 | 0.00 | 0.00 | 41 | 1017.9 |
| 20260506101020 | 20 | 142 | 11.3 | 16.1 | 0.00 | 0.00 | 0.00 | 42 | 1018.0 |
| 20260506100016 | 20 | 153 | 8.0 | 14.5 | 0.00 | 0.00 | 0.00 | 46 | 1018.1 |
| 20260506095022 | 20 | 171 | 4.8 | 12.9 | 0.00 | 0.00 | 0.00 | 45 | 1018.2 |
| 20260506094042 | 19 | 128 | 4.8 | 12.9 | 0.00 | 0.00 | 0.00 | 49 | 1018.2 |
| 20260506093022 | 19 | 138 | 4.8 | 14.5 | 0.00 | 0.00 | 0.00 | 50 | 1018.4 |
| 20260506092041 | 19 | 123 | 3.2 | 11.3 | 0.00 | 0.00 | 0.00 | 49 | 1018.3 |
| 20260506091018 | 20 | 150 | 4.8 | 12.9 | 0.00 | 0.00 | 0.00 | 42 | 1018.4 |
| 20260506090025 | 20 | 154 | 4.8 | 11.3 | 0.00 | 0.00 | 0.00 | 43 | 1018.5 |
| 20260506085024 | 19 | 139 | 3.2 | 6.4 | 0.00 | 0.00 | 0.00 | 45 | 1018.4 |
| 20260506084023 | 19 | 111 | 3.2 | 6.4 | 0.00 | 0.00 | 0.00 | 44 | 1018.4 |
| 20260506083022 | 19 | 138 | 3.2 | 6.4 | 0.00 | 0.00 | 0.00 | 43 | 1018.4 |
| 20260506082021 | 18 | 112 | 3.2 | 6.4 | 0.00 | 0.00 | 0.00 | 42 | 1018.5 |
| 20260506081021 | 18 | 130 | 3.2 | 4.8 | 0.00 | 0.00 | 0.00 | 43 | 1018.4 |
| 20260506073021 | 16 | 16 | 3.2 | 6.4 | 0.00 | 0.00 | 0.00 | 59 | 1018.4 |
| 20260506072018 | 16 | 30 | 3.2 | 6.4 | 0.00 | 0.00 | 0.00 | 59 | 1018.3 |
| 20260506071024 | 16 | 14 | 4.8 | 6.4 | 0.00 | 0.00 | 0.00 | 57 | 1018.3 |
| 20260506062021 | 15 | 30 | 3.2 | 9.7 | 0.00 | 0.00 | 0.00 | 65 | 1018.4 |
| 20260506061021 | 15 | 34 | 3.2 | 6.4 | 0.00 | 0.00 | 0.00 | 63 | 1018.4 |
| 20260506051017 | 16 | 81 | 1.6 | 3.2 | 0.00 | 0.00 | 0.00 | 67 | 1018.2 |
| 20260506045016 | 15 | 72 | 1.6 | 6.4 | 0.00 | 0.00 | 0.00 | 70 | 1018.1 |
| 20260506044026 | 15 | 4 | 1.6 | 4.8 | 0.00 | 0.00 | 0.00 | 73 | 1018.1 |
| 20260506043024 | 14 | 348 | 1.6 | 3.2 | 0.00 | 0.00 | 0.00 | 75 | 1018.0 |
| 20260506042023 | 13 | 350 | 3.2 | 6.4 | 0.00 | 0.00 | 0.00 | 78 | 1018.0 |
| 20260506041023 | 13 | 146 | 0.0 | 1.6 | 0.00 | 0.00 | 0.00 | 79 | 1017.9 |
| 20260506040020 | 12 | 145 | 0.0 | 1.6 | 0.00 | 0.00 | 0.00 | 80 | 1017.8 |
| 20260506035016 | 12 | 145 | 0.0 | 1.6 | 0.00 | 0.00 | 0.00 | 81 | 1017.8 |
| 20260506034023 | 12 | 147 | 0.0 | 1.6 | 0.00 | 0.00 | 0.00 | 81 | 1017.7 |
| 20260506033022 | 12 | 0.0 | 0.0 | 0.00 | 0.00 | 0.00 | 80 | 1017.6 | |
| 20260506032017 | 12 | 0.0 | 0.0 | 0.00 | 0.00 | 0.00 | 80 | 1017.5 | |
| 20260506031026 | 12 | 0.0 | 0.0 | 0.00 | 0.00 | 0.00 | 80 | 1017.5 | |
| 20260506030025 | 12 | 0.0 | 0.0 | 0.00 | 0.00 | 0.00 | 79 | 1017.4 | |
| 20260506025020 | 12 | 148 | 0.0 | 1.6 | 0.00 | 0.00 | 0.00 | 79 | 1017.4 |
| 20260506024019 | 12 | 0.0 | 0.0 | 0.00 | 0.00 | 0.00 | 78 | 1017.4 | |
| 20260506023018 | 12 | 148 | 0.0 | 1.6 | 0.00 | 0.00 | 0.00 | 79 | 1017.4 |
| 20260506022023 | 12 | 149 | 0.0 | 1.6 | 0.00 | 0.00 | 0.00 | 79 | 1017.4 |
| 20260506021017 | 12 | 0.0 | 0.0 | 0.00 | 0.00 | 0.00 | 79 | 1017.4 | |
| 20260506020017 | 12 | 0.0 | 0.0 | 0.00 | 0.00 | 0.00 | 78 | 1017.3 | |
| 20260506015039 | 12 | 0.0 | 0.0 | 0.00 | 0.00 | 0.00 | 77 | 1017.3 | |
| 20260506014036 | 12 | 0.0 | 0.0 | 0.00 | 0.00 | 0.00 | 77 | 1017.4 | |
| 20260506013022 | 12 | 0.0 | 0.0 | 0.00 | 0.00 | 0.00 | 76 | 1017.3 | |
| 20260506012021 | 12 | 0.0 | 0.0 | 0.00 | 0.00 | 0.00 | 75 | 1017.3 | |
| 20260506011022 | 13 | 0.0 | 0.0 | 0.00 | 0.00 | 0.00 | 75 | 1017.2 | |
| 20260506010021 | 13 | 0.0 | 0.0 | 0.00 | 0.00 | 0.00 | 74 | 1017.2 | |
| 20260506004018 | 13 | 0.0 | 0.0 | 0.00 | 0.00 | 0.00 | 73 | 1017.2 | |
| 20260506003023 | 13 | 0.0 | 0.0 | 0.00 | 0.00 | 0.00 | 73 | 1017.2 | |
| 20260506002023 | 13 | 0.0 | 0.0 | 0.00 | 0.00 | 0.00 | 72 | 1017.2 | |
| 20260506001019 | 13 | 0.0 | 0.0 | 0.00 | 0.00 | 0.00 | 71 | 1017.2 | |
| 20260506000025 | 13 | 0.0 | 0.0 | 0.00 | 0.00 | 0.00 | 71 | 1017.1 | |
| 20260505235022 | 13 | 0.0 | 0.0 | 0.00 | 0.00 | 0.00 | 70 | 1017.2 | |
| 20260505234022 | 13 | 0.0 | 0.0 | 0.00 | 0.00 | 0.00 | 70 | 1017.2 | |
| 20260505233019 | 13 | 0.0 | 0.0 | 0.00 | 0.00 | 0.00 | 70 | 1017.2 | |
| 20260505232050 | 13 | 164 | 0.0 | 1.6 | 0.00 | 0.00 | 0.00 | 70 | 1017.2 |
| 20260505231025 | 13 | 0.0 | 0.0 | 0.00 | 0.00 | 0.00 | 70 | 1017.1 | |
| 20260505230025 | 13 | 0.0 | 0.0 | 0.00 | 0.00 | 0.00 | 70 | 1017.2 | |
| 20260505224022 | 14 | 164 | 1.6 | 3.2 | 0.00 | 0.00 | 0.00 | 70 | 1017.2 |
| 20260505223021 | 14 | 164 | 0.0 | 1.6 | 0.00 | 0.00 | 0.00 | 69 | 1017.3 |
| 20260505222018 | 14 | 164 | 0.0 | 1.6 | 0.00 | 0.00 | 0.00 | 70 | 1017.4 |
| 20260505221025 | 14 | 169 | 1.6 | 3.2 | 0.00 | 0.00 | 0.00 | 70 | 1017.4 |
| 20260505220025 | 14 | 170 | 1.6 | 3.2 | 0.00 | 0.00 | 0.00 | 71 | 1017.4 |
| 20260505215024 | 14 | 170 | 0.0 | 1.6 | 0.00 | 0.00 | 0.00 | 71 | 1017.4 |
| 20260505214021 | 14 | 0.0 | 0.0 | 0.00 | 0.00 | 0.00 | 71 | 1017.4 | |
| 20260505213021 | 15 | 171 | 0.0 | 1.6 | 0.00 | 0.00 | 0.00 | 71 | 1017.4 |
| 20260505212059 | 15 | 0.0 | 0.0 | 0.00 | 0.00 | 0.00 | 71 | 1017.3 | |
| 20260505211025 | 15 | 171 | 0.0 | 1.6 | 0.00 | 0.00 | 0.00 | 71 | 1017.3 |
| 20260505210055 | 15 | 171 | 0.0 | 1.6 | 0.00 | 0.00 | 0.00 | 71 | 1017.4 |
| 20260505205018 | 15 | 188 | 0.0 | 3.2 | 0.00 | 0.00 | 0.00 | 70 | 1017.3 |
| 20260505204024 | 15 | 0.0 | 0.0 | 0.00 | 0.00 | 0.00 | 70 | 1017.4 | |
| 20260505203024 | 15 | 0.0 | 0.0 | 0.00 | 0.00 | 0.00 | 69 | 1017.3 | |
| 20260505202022 | 15 | 0.0 | 0.0 | 0.00 | 0.00 | 0.00 | 69 | 1017.2 | |
| 20260505201022 | 16 | 0.0 | 0.0 | 0.00 | 0.00 | 0.00 | 67 | 1017.2 | |
| 20260505200018 | 16 | 0.0 | 0.0 | 0.00 | 0.00 | 0.00 | 67 | 1017.3 | |
| 20260505195017 | 16 | 0.0 | 0.0 | 0.00 | 0.00 | 0.00 | 65 | 1017.2 | |
| 20260505194025 | 16 | 198 | 0.0 | 1.6 | 0.00 | 0.00 | 0.00 | 64 | 1017.3 |